Regional Weather Roundup
Issued by NWS

Home | Current Version | Previous Version | Text Only | Print | Product List | Glossary Off
Versions: 1 2 3 4 5 6 7 8 9 10 11 12 13 14 15 16 17 18 19 20 21 22 23 24 25 26 27 28 29 30 31 32 33 34 35 36 37 38 39 40 41 42 43 44 45 46 47 48 49 50

000
ASUS43 KLOT 191903
RWRIL

ILLINOIS REGIONAL WEATHER ROUNDUP
NATIONAL WEATHER SERVICE CHICAGO/ROMEOVILLE IL
100 PM CST MON FEB 19 2018

NOTE: "FAIR" INDICATES FEW OR NO CLOUDS BELOW 12,000 FEET WITH NO
SIGNIFICANT WEATHER AND/OR OBSTRUCTIONS TO VISIBILITY.

* THESE STATIONS ARE NOT UNDER NWS QUALITY CONTROL. THEY ALSO MAY NOT
  REPORT WEATHER SUCH AS PRECIPITATION OR FOG.

ILZ001-002-007-009-015-016-024-192000-
NORTHWEST ILLINOIS

CITY           SKY/WX    TMP DP  RH WIND       PRES   REMARKS
MOLINE         FAIR      61  56  83 S16G28    29.66F
STERLING*        N/A    N/A N/A N/A MISG        N/A
SAVANNA*       FOG       42  42  99 S3        29.69F VSB<1/4
$$

ILZ003-004-008-010-011-017-018-192000-
NORTH CENTRAL ILLINOIS

CITY           SKY/WX    TMP DP  RH WIND       PRES   REMARKS
ROCKFORD       DRZL/FOG  41  41 100 SE9       29.73F VSB 1/2
FREEPORT*      FOG       36  36 100 E3        29.72F VSB 1/4
ROCHELLE*      FOG       39  39 100 S9        29.73F VSB<1/4 WCI  32
DE KALB*       LGT RAIN  41  41 100 SE12      29.74F VSB<1/4
PERU*          PTSUNNY   53  51  92 SW15G24   29.74F
$$

ILZ005-006-012>014-019>023-192000-
NORTHEAST ILLINOIS

CITY           SKY/WX    TMP DP  RH WIND       PRES   REMARKS
CHICAGO-OHARE  LGT RAIN  45  44  97 S5        29.76F VSB 1/2
CHICAGO-MIDWAY LGT RAIN  52  51  97 S13G24    29.77F FOG
AURORA         FOG       43  43 100 S8        29.75F VSB<1/4
LANSING*       DRIZZLE   49  49 100 SW17      29.81S
JOLIET*        CLOUDY    54  54 100 S10G17    29.78S FOG
WAUKEGAN       FOG       40  40 100 SE5       29.76F VSB 1/2
DUPAGE AIRPORT FOG       45  45 100 S9        29.75F VSB<1/4
KANKAKEE*      CLOUDY    56  56  97 SW20G29   29.83F
WHEELING       LGT RAIN  46  46 100 SE3       29.77F VSB 3/4
MORRIS*        CLOUDY    50  49  99 SW14      29.76F FOG
ROMEOVILLE*    FOG       49  49 100 SW17G24   29.77F VSB<1/4
NORTHERLY ISL    N/A     39  38  96 S5          N/A
$$

LMZ740>746-192000-
SOUTHERN LAKE MICHIGAN

STATION/POSITION SKY/WX   TEMP    WIND        PRES    VSBY  WAVE
                          AIR SEA DIR/SP/G                  HT/PER
                          (F)     (DEG/KT/KT) (MB)    (MI)  (FT/S)
HARRISON CRIB              42     170/ 13/ 13   N/A
BURNHAM HARBOR             44     170/  6       N/A
CALUMET HARBOR             49     180/  7/ 14 1008.1F
BURNS HARBOR               51     190/ 16/ 19 1009.8F
MICHIGAN CITY              51     170/ 16/ 20   N/A
$$

ILZ025>027-034>036-040-047-049-050-058-095>099-192000-
WEST-CENTRAL ILLINOIS

CITY           SKY/WX    TMP DP  RH WIND       PRES   REMARKS
QUINCY         CLOUDY    63  56  78 S20G26    29.75S
GALESBURG*     CLOUDY    61  58  91 S14G20    29.73S
MACOMB*        CLOUDY    63  58  84 S18G26    29.75S
JACKSONVILLE*  CLOUDY    62  56  82 S18G25    29.81F
PITTSFIELD*    CLOUDY    63  57  82 S14       29.81R
$$

ILZ028>032-037-038-041>044-048-051>054-059>061-192000-
CENTRAL ILLINOIS

CITY           SKY/WX    TMP DP  RH WIND       PRES   REMARKS
BLOOMINGTON    CLOUDY    59  56  89 S25G32    29.80F
DECATUR        LGT RAIN  60  32  34 SW21G31   29.86F
PEORIA         CLOUDY    60  57  89 S23G32    29.77F
LACON*         PTSUNNY   58  56  91 SW17G26   29.74F
LINCOLN*       CLOUDY    62  59  91 S12G21    29.82F
SPRINGFIELD    CLOUDY    62  58  86 S25G31    29.83F
TAYLORVILLE    CLOUDY    59  57  94 S18G26    29.87R
$$

ILZ033-039-045-046-055>057-062-063-192000-
EAST-CENTRAL ILLINOIS

CITY           SKY/WX    TMP DP  RH WIND       PRES   REMARKS
CHAMPAIGN      HVY RAIN  59  57  93 S23G36    29.86F FOG
DANVILLE*      CLOUDY    59  57  94 S29       29.87R
RANTOUL*       LGT RAIN  61  59  94 S18G32    29.86F
MATTOON        LGT RAIN  59  56  89 S17G30    29.90F
PARIS*         LGT RAIN  60  58  92 S32G38    29.94S
$$

ILZ079-100>102-192000-
SOUTHWEST ILLINOIS

CITY           SKY/WX    TMP DP  RH WIND       PRES   REMARKS
ALTON          LGT RAIN  59  59 100 S22G31    29.86F
BELLEVILLE     PTSUNNY   62  58  87 S14       29.87F
CAHOKIA*       LGT RAIN N/A N/A N/A MISG      29.86F FOG
SPARTA*        CLOUDY    65  60  82 S16G25    29.93F
$$

ILZ064>066-069>071-074>076-080>082-084>086-088>090-092>094-192000-
SOUTH-CENTRAL ILLINOIS

CITY           SKY/WX    TMP DP  RH WIND       PRES   REMARKS
CARBONDALE     PTSUNNY   68  59  73 S35G46    29.95F
CAIRO*         CLOUDY    68  60  76 SW18G28   30.01F
EFFINGHAM*     LGT RAIN  60  60 100 SE9G16    29.97F
MARION         CLOUDY    68  59  73 S23G35    29.98F
MT. VERNON     PTSUNNY   67  59  75 SW22G29   29.96F
CENTRALIA*     CLOUDY    64  60  86 S16       29.93F
SALEM*         CLOUDY    64  58  83 S12       29.94F
METROPOLIS*    PTSUNNY   71  59  66 S22G30    30.01F
$$

ILZ067-068-072-073-078-083-087-091-192000-
SOUTHEAST ILLINOIS

CITY           SKY/WX    TMP DP  RH WIND       PRES   REMARKS
LAWRENCEVILLE  CLOUDY    68  60  75 SW21G31   30.00F
FLORA*         CLOUDY    66  59  77 SW21      29.97R
FAIRFIELD*     CLOUDY    67  59  76 S12G20    29.97F
HARRISBURG*    CLOUDY    69  60  75 S22G29    30.00F
ROBINSON*      CLOUDY    63  59  85 SW14G25   30.00S
CARMI*         CLOUDY    68  59  73 SW21G26   30.00S
$$

ABBREVIATIONS USED IN REMARKS
   TC - TEMPERATURE IN CELSIUS
  WCI - WIND CHILL INDEX
   HX - HEAT INDEX
  VSB - VISIBILITY
$$





USA.gov is the U.S. government's official web portal to all federal, state and local government web resources and services.